Regional Weather Roundup
Issued by NWS Upton, NY

Current Version | Previous Version | Graphics & Text | Print | Product List | Glossary Off
Versions: 1 2 3 4 5 6 7 8 9 10 11 12 13 14 15 16 17 18 19 20 21 22 23 24 25 26 27 28 29 30 31 32 33 34 35 36 37 38 39 40 41 42 43 44 45 46 47 48 49 50

000
ASUS41 KOKX 250905
RWROKX

REGIONAL WEATHER ROUNDUP
NATIONAL WEATHER SERVICE NEW YORK NY
400 AM EST SUN JAN 25 2015

NOTE: "FAIR" INDICATES FEW OR NO CLOUDS BELOW 12,000 FEET WITH NO
SIGNIFICANT WEATHER AND/OR OBSTRUCTIONS TO VISIBILITY.

NYZ071-072-176-178-NJZ106-104-251000-
NEW YORK CITY METRO AREA


CITY           SKY/WX    TMP DP  RH WIND       PRES   REMARKS
CENTRAL PARK   PTCLDY    36  24  62 W7        29.60R WCI  30
LAGUARDIA APRT PTCLDY    36  25  64 W16G22    29.58R WCI  26
KENNEDY INTL   PTCLDY    36  25  64 W20       29.60R WCI  25
NEWARK/LIBERTY PTCLDY    33  25  72 W13       29.60R WCI  24
BRNX BOT. GARD   N/A    N/A N/A N/A W5        29.59S
TETERBORO      PTCLDY    35  24  64 W13       29.58R WCI  26
$$

NYZ177-179-078>081-251000-
LONG ISLAND NEW YORK

CITY           SKY/WX    TMP DP  RH WIND       PRES   REMARKS
FARMINGDALE    PTCLDY    34  25  69 W8        29.57R WCI  27
ISLIP          PTCLDY    34  25  69 W10       29.54R WCI  26
SHIRLEY        CLOUDY    35  26  69 W8G20     29.56R WCI  29
WESTHAMPTON    CLOUDY    35  26  69 W9        29.55R WCI  28
MONTAUK POINT    N/A     37  28  70 W12G20    29.52R WCI  29
$$

NYZ052-065-067-251000-
HUDSON VALLEY

CITY           SKY/WX    TMP DP  RH WIND       PRES   REMARKS
WHITE PLAINS   MOCLDY    34  25  69 W8        29.54R WCI  27
NEWBURGH       NOT AVBL
MONTGOMERY     CLOUDY    34  25  69 SW9       29.53R WCI  27
POUGHKEEPSIE   MOCLDY    35  25  66 SW12      29.52R WCI  27
ALBANY         FLURRIES  34  26  72 SW7       29.48R WCI  28
$$

NJZ001-105-106-008-010-013-015-019>022-104-251000-
NEW JERSEY

CITY           SKY/WX    TMP DP  RH WIND       PRES   REMARKS
NEWARK/LIBERTY PTCLDY    33  25  72 W13       29.60R WCI  24
TETERBORO      PTCLDY    35  24  64 W13       29.58R WCI  26
CALDWELL       PTCLDY    33  23  66 W7        29.59R WCI  27
MORRISTOWN     MOCLDY    36  25  64 SW7       29.60R WCI  30
SOMERVILLE     CLEAR     34  24  67 W5        29.60R WCI  30
SUSSEX         CLOUDY    33  24  69 SW6       29.56R WCI  28
ANDOVER          N/A     31  24  75 VRB5      29.58R WCI  26
TRENTON        CLEAR     34  24  67 W9        29.63R WCI  27
MILLVILLE      FAIR      33  28  81 W7        29.69R WCI  27
ATLANTIC CITY  CLEAR     33  27  78 W9        29.67R WCI  25
WRIGHTSTOWN    PTCLDY    33  26  75 W8        29.62S WCI  26
TOMS RIVER     PTCLDY    32  27  80 W5        29.64R WCI  27
BELMAR         PTCLDY    34  21  60 W10       29.62R WCI  26
$$

PAZ047>061-062-071-251000-
EASTERN PENNSYLVANIA

CITY           SKY/WX    TMP DP  RH WIND       PRES   REMARKS
PHILADELPHIA   MOCLDY    34  26  72 W10       29.68R WCI  26
ALLENTOWN      MOCLDY    34  25  69 W10       29.62R WCI  26
SCRANTON       CLOUDY    31  24  75 SW10      29.57R WCI  22
$$

CTZ002-004>006-009-010-012-RIZ004-006-007-MAZ004-011-015-251000-
SOUTHERN NEW ENGLAND
 IN CT

CITY           SKY/WX    TMP DP  RH WIND       PRES   REMARKS
BRADLEY INTL   MOCLDY    31  23  72 SW5       29.48R WCI  26
HARTFORD       PTCLDY    27  23  85 S5        29.51R WCI  22
DANBURY        MOCLDY    32  23  69 SW10      29.53S WCI  24
WTRBRY/OXFORD  PTCLDY    30  19  64 W7        29.49R WCI  23
BRIDGEPORT     PTCLDY    34  27  75 W10       29.54R WCI  26
MERIDEN        PTCLDY    26  22  84 CALM      29.51R
NEW HAVEN      PTCLDY    34  26  72 W6        29.53R WCI  29
CHESTER        PTSUNNY   32  27  80 W6        29.50S WCI  26
GROTON         CLOUDY    31  25  78 W9        29.51R WCI  23
WILLIMANTIC    CLEAR     31  24  75 SW5       29.49R WCI  26

 IN RI

CITY           SKY/WX    TMP DP  RH WIND       PRES   REMARKS
PROVIDENCE     MOCLDY    32  25  75 W14G21    29.45R WCI  22
BLOCK ISLAND   CLOUDY    36  25  64 W14G23    29.49R WCI  27
WESTERLY       CLOUDY    32  25  75 W7        29.51R WCI  26

 IN MA

CITY           SKY/WX    TMP DP  RH WIND       PRES   REMARKS
BOSTON         MOCLDY    32  25  75 W13G20    29.41R WCI  22
WORCESTER      CLOUDY    28  26  92 W15G24    29.40R WCI  16
WESTFIELD      CLOUDY    32  25  75 SW3       29.47R
PROVINCETOWN   PTCLDY    34  27  75 W18       29.41R WCI  23
NANTUCKET      PTCLDY    34  27  75 W18G25    29.45R WCI  23
$$

ANZ330-335-338-340-345-350-353-355-251000-
COASTAL MARINE OBSERVATIONS


STATION/POSITION TIME  SKY/WX   TEMP    WIND        PRES    VSBY  WAVE
                                AIR SEA DIR/SP/G                  HT/PER
                 (UTC)          (F)     (DEG/KT/KT) (MB)    (MI)  (FT/S)
NY HARB ENTRANCE 0900            38 42  280/ 25/ 31 1001.1          5/11
4S FIRE IS       0900               39                N/A           6/12
20S FIRE ISLAND  0800               41              1001.1          7/12
23SW MTP         0900                                 N/A           8/13
HUDSON CANYON    NOT AVBL
EXECUTION ROCKS  0900            36 35  260/ 12/ 16   N/A
WESTERN LI SOUND 0900            36     250/ 10/ 12   N/A           1/ 3
CENTRAL LI SOUND 0800            36 37  270/ 19/ 21   N/A           3/ 4
EASTERN LI SOUND NOT AVBL
ROBBINS REEF     0900            35     270/ 17/ 21 1000.8
$$


>>>>>>>>>>>>>>>>>>>>>>>>>>>> KEY <<<<<<<<<<<<<<<<<<<<<<<<<<<
>                                                          <
>     SKY/WX - SKY CONDITION/PRESENT WEATHER               <
>     TMP    - TEMPERATURE IN FAHRENHEIT                   <
>     DP     - DEWPOINT IN FAHRENHEIT                      <
>     RH     - RELATIVE HUMIDITY IN PERCENT                <
>     WIND   - DIRECTION AND SPEED IN MPH                  <
>     PRES   - MEAN SEA LEVEL PRESSURE IN INCHES OF HG     <
>     WCI    - WIND CHILL INDEX                            <
>     VSB    - VISIBILITY IN MILES                         <
>     HX     - HEAT INDEX                                  <
>     TC     - TEMPERATURE IN CELSIUS                      <
>     VRB    - VARIABLE WIND DIRECTION                     <
>                                                          <
>>>>>>>>>>>>>>>>>>>>>>>>>>>> KEY <<<<<<<<<<<<<<<<<<<<<<<<<<<





USA.gov is the U.S. government's official web portal to all federal, state and local government web resources and services.